Theta_e
314 317 323 320 322 324 321 318 315 320 316 309 313 312 310 310 308 308 308 307 305 305 309 308 306 306 306 307 307 307 301 297 297 296 297 296 295 294 293 293 292 292 291 290 289 289 289 289 290 290 290 290 290 290 290 290 289 289 289 289 288 288 288 288 287 287 287 287 287 287 287 287 287 287 287 287 287 286 287 287 287 287 287 287 287 287
314 317 323 327 324 317 316 312 308 310 307 306 309 309 309 310 308 307 305 306 305 306 311 311 308 307 306 306 307 307 306 302 299 298 298 297 295 294 294 293 293 292 291 290 289 287 288 289 289 289 289 290 290 290 290 290 289 289 289 289 288 288 288 287 287 287 287 287 286 286 286 286 286 287 286 287 286 286 286 286 287 287 287 287 287 287
320 320 322 324 316 308 308 305 305 308 307 307 308 308 310 309 311 311 306 307 307 305 310 312 308 307 306 306 306 306 307 305 302 301 300 299 297 295 294 294 293 292 291 291 289 287 287 288 288 288 288 289 290 290 290 289 289 289 289 289 288 288 288 287 287 287 286 286 286 286 285 285 285 285 285 285 285 285 285 286 286 287 286 286 287 286
323 323 318 313 308 307 308 305 305 307 307 309 309 309 312 309 312 315 310 309 309 306 307 310 307 306 307 306 306 306 306 305 303 303 302 300 299 297 296 294 293 293 291 291 290 287 286 286 287 287 288 289 290 290 290 289 289 289 289 288 288 288 287 287 287 286 286 286 286 285 285 284 284 284 284 284 284 284 284 285 285 285 285 284 285 285
322 319 309 307 307 309 311 307 307 308 310 315 313 310 312 311 310 312 311 309 311 310 306 307 310 313 313 309 308 307 304 304 303 302 302 299 299 298 297 296 294 293 292 291 290 287 286 285 285 286 287 289 289 290 290 289 289 289 288 288 288 287 287 287 286 286 286 285 285 285 284 284 284 284 284 283 284 283 283 284 284 284 283 283 283 283
320 311 305 309 308 307 310 311 312 312 313 319 319 312 311 312 310 310 312 310 313 317 308 308 314 319 317 314 314 311 307 308 305 303 304 300 298 298 297 296 294 293 292 291 290 288 286 285 285 286 287 288 289 290 290 289 289 288 288 288 287 287 286 286 286 285 285 285 285 284 284 283 283 283 283 283 283 283 283 283 283 283 283 283 283 283
316 307 307 314 312 309 310 312 316 313 313 317 317 313 310 309 309 310 311 310 316 319 309 309 316 316 314 317 318 313 310 312 307 307 306 301 298 298 296 296 294 293 292 291 290 288 286 285 285 285 286 288 289 290 289 289 289 288 288 287 287 286 286 285 285 285 285 285 284 284 283 283 282 282 282 282 282 282 282 282 282 282 283 283 283 283
312 309 311 313 314 313 311 316 317 312 316 319 313 313 313 309 310 311 308 308 312 311 306 308 312 312 312 313 313 309 309 311 307 307 306 301 300 298 296 296 294 292 292 291 289 288 286 285 284 285 287 289 289 289 289 289 288 288 287 287 286 286 285 285 285 285 284 284 284 283 283 282 282 281 281 281 281 281 281 281 281 281 281 282 282 282
310 312 315 313 314 315 315 321 317 310 316 318 309 310 310 307 309 310 307 307 309 307 309 309 306 310 313 311 309 305 307 313 312 311 310 306 302 299 297 295 294 293 291 290 289 288 286 285 285 286 288 289 289 289 289 288 288 288 287 287 286 286 285 285 285 284 284 284 283 282 282 282 281 281 281 280 280 280 280 280 280 280 280 281 281 281
311 311 313 314 316 316 316 315 309 310 313 310 305 308 310 310 310 308 306 308 311 312 315 312 307 311 317 314 309 305 307 314 315 315 313 308 304 300 297 295 294 292 291 290 289 288 286 285 286 287 288 289 289 289 289 288 288 287 287 287 286 285 285 285 284 284 284 283 283 282 281 281 280 280 280 280 280 280 279 279 279 279 279 280 280 280
309 306 307 312 313 313 314 308 302 307 309 305 307 312 314 314 310 309 310 310 313 317 318 314 308 310 317 316 311 310 313 317 318 317 313 311 310 303 297 295 293 291 290 289 288 287 286 285 286 287 288 288 288 288 288 288 287 287 287 287 286 285 285 284 284 284 283 283 282 281 281 280 280 280 279 279 279 279 279 279 279 279 279 279 279 279
310 308 309 311 310 309 313 310 304 305 306 308 315 317 317 318 316 318 317 314 316 320 320 313 305 307 315 315 311 313 313 312 315 319 319 320 319 309 297 294 293 291 290 289 288 287 286 285 285 285 286 287 288 288 288 288 287 287 287 286 286 285 284 284 283 283 283 282 282 281 280 280 279 279 279 278 278 278 278 278 278 278 278 278 278 278
316 313 310 308 307 308 315 315 307 307 309 310 315 318 319 321 323 324 322 317 319 320 315 308 306 307 310 311 311 313 313 311 311 313 317 318 315 308 298 293 292 290 289 288 287 287 286 286 285 284 285 286 287 287 288 287 287 286 286 286 285 285 284 283 283 283 282 282 281 280 280 279 279 278 278 278 278 277 277 277 277 277 277 277 278 278
320 315 308 308 309 309 314 314 311 313 311 308 313 319 320 322 325 326 322 317 317 318 310 303 308 312 311 313 312 309 311 313 310 307 307 307 306 303 298 293 291 290 288 288 287 287 286 287 286 284 285 285 286 287 287 287 286 286 286 285 285 284 283 283 282 282 282 281 281 280 279 279 278 278 277 277 277 277 276 276 276 276 277 277 277 277
321 318 314 313 313 311 309 311 316 317 309 307 313 317 319 325 329 326 324 321 318 321 312 303 309 318 316 315 314 309 308 308 307 304 300 299 298 297 295 292 290 289 288 287 287 287 287 286 286 285 285 285 287 287 287 287 286 286 285 285 284 284 283 282 282 281 281 280 280 279 279 278 277 277 277 277 276 276 276 275 275 276 276 276 276 277
316 319 319 311 308 308 307 310 314 315 311 308 311 314 316 322 322 318 321 320 317 319 313 307 313 317 314 313 311 307 306 304 302 300 299 300 297 295 294 292 289 288 287 287 286 287 287 286 285 285 285 285 287 287 287 286 286 285 285 284 284 283 282 281 281 280 280 280 279 279 278 277 277 277 276 276 276 275 275 275 275 275 275 276 276 276
316 318 313 305 306 305 304 307 308 311 313 309 309 313 312 312 316 319 319 313 310 314 315 313 314 313 314 315 307 303 305 304 301 298 299 299 296 295 295 291 289 287 286 286 286 287 286 285 284 284 284 285 286 287 286 286 285 285 284 284 283 283 282 281 280 280 279 279 279 278 278 277 277 277 276 275 275 274 274 274 274 275 275 275 275 275
317 317 311 307 311 304 297 302 304 305 308 310 312 312 307 307 313 317 318 315 312 315 317 316 313 313 316 314 306 304 308 309 305 301 299 298 295 296 295 291 288 287 286 286 286 286 286 284 283 283 284 286 287 287 286 285 285 284 284 284 283 282 281 280 279 279 278 278 278 278 278 277 277 276 275 275 274 274 273 274 274 274 274 274 275 275
314 314 314 307 308 304 298 303 307 303 302 307 310 307 308 314 314 312 315 317 316 316 319 319 314 312 314 315 313 312 312 314 311 304 302 301 299 298 295 290 288 287 286 286 286 286 285 284 283 283 284 286 286 286 285 285 284 284 283 283 282 281 280 280 279 279 278 278 278 278 278 277 276 275 274 274 273 273 273 273 273 273 274 274 274 274
313 313 316 305 301 304 303 306 312 308 301 302 303 302 306 313 315 313 313 315 317 316 316 317 314 313 316 321 324 319 315 316 314 309 307 307 302 298 294 290 288 287 286 286 286 285 285 284 283 283 284 285 286 285 285 284 284 283 283 282 281 280 280 279 278 278 278 278 277 277 277 276 275 274 274 273 273 273 273 273 273 273 273 273 273 274
313 313 315 307 300 305 308 308 311 310 305 304 305 305 305 306 310 313 311 311 316 317 317 316 313 313 319 324 327 326 319 315 315 315 313 310 303 296 292 290 288 286 286 286 285 285 285 284 282 283 285 285 285 285 284 284 283 283 282 282 280 279 279 278 278 277 277 277 277 277 276 275 274 274 273 273 272 272 272 272 272 272 272 272 273 273
315 314 314 312 307 307 309 307 305 308 308 306 307 308 306 306 310 313 311 310 311 314 317 319 315 312 316 321 323 325 320 315 317 317 314 314 307 296 290 290 288 286 286 286 285 285 285 284 282 282 283 283 284 284 283 283 282 282 282 281 279 279 278 278 277 277 277 277 277 276 275 275 274 274 273 273 272 272 272 272 272 272 272 272 272 272
318 317 313 314 313 309 306 303 301 304 306 306 307 308 306 306 310 313 313 312 311 311 312 315 316 313 315 320 322 323 320 316 317 314 312 313 306 294 290 289 287 287 286 286 285 285 284 283 282 281 281 282 282 283 283 282 282 282 281 280 279 278 277 277 277 276 277 277 276 276 275 275 274 273 273 272 271 271 271 271 271 271 271 271 271 271
316 317 313 313 316 311 305 302 301 300 302 305 307 306 305 306 308 311 312 313 315 313 311 313 314 313 313 315 312 312 311 308 308 308 309 311 302 292 290 289 287 286 286 285 285 284 283 283 282 281 280 280 281 282 282 282 282 281 280 279 278 277 277 276 276 276 276 276 276 276 276 275 274 273 272 271 271 271 270 270 270 270 270 270 270 270
313 316 315 313 315 315 310 308 306 303 302 305 308 306 305 306 307 308 309 311 313 313 312 313 313 312 314 310 303 303 306 306 305 301 301 305 300 292 289 288 286 286 285 285 284 284 284 284 283 281 280 280 280 281 282 282 281 280 279 278 277 276 276 276 276 276 276 275 276 276 275 274 273 271 271 270 270 270 270 269 269 269 269 269 270 270
315 317 315 312 313 313 311 311 313 310 305 304 307 306 304 305 306 307 308 309 310 311 312 313 312 312 313 309 305 306 307 308 306 300 296 297 296 292 289 287 286 285 285 285 284 284 284 284 283 281 280 280 280 280 281 281 280 279 278 276 276 276 276 276 276 275 275 275 275 275 274 273 271 271 270 270 270 269 269 269 269 269 269 269 269 269
316 317 313 312 313 311 309 309 312 313 310 307 308 307 305 305 305 306 309 309 310 310 311 311 311 312 312 310 309 310 309 307 306 305 300 296 293 290 288 287 286 285 285 285 284 285 284 284 283 282 280 279 280 280 281 280 279 278 276 276 275 275 275 275 275 275 275 275 274 273 272 271 271 270 270 269 269 269 268 268 268 268 268 268 268 267
314 315 311 311 312 311 311 310 311 313 311 309 309 308 306 305 305 306 308 308 309 310 311 311 311 312 312 311 310 311 311 309 308 309 306 300 295 291 288 287 286 285 285 285 285 285 285 284 283 282 279 279 279 280 280 279 278 276 275 275 275 275 275 275 275 275 274 274 273 272 271 270 270 270 269 269 268 268 267 267 267 267 266 266 266 265
312 313 312 312 312 311 310 310 311 312 309 308 309 309 307 306 305 306 306 307 308 310 310 310 311 312 311 310 310 311 310 309 310 310 307 302 297 292 289 288 287 285 285 285 285 285 285 284 283 282 279 278 278 278 278 278 276 275 275 275 274 275 274 274 274 274 273 272 271 271 270 270 269 269 268 268 268 267 267 266 266 265 264 264 264 264
310 312 312 312 312 312 311 310 310 309 307 307 308 308 307 305 305 305 305 306 307 308 309 309 310 310 310 310 310 310 310 310 310 309 306 302 298 293 290 288 287 286 285 285 285 285 285 284 283 281 279 278 277 277 277 276 275 275 275 274 274 274 273 273 274 273 272 271 270 270 269 269 268 268 268 268 267 267 266 265 264 264 263 263 263 263
309 311 313 312 312 313 311 310 311 310 308 308 308 308 308 306 305 305 305 305 306 307 307 307 309 309 309 309 309 309 309 308 308 308 306 303 299 295 292 289 287 286 285 285 285 285 285 283 282 281 280 278 277 277 276 275 274 274 274 274 274 273 273 273 273 272 271 270 269 269 269 268 267 267 268 268 267 266 265 264 263 263 262 262 262 262
310 311 312 312 313 313 312 312 313 311 309 309 309 309 308 307 307 306 306 306 306 306 307 307 308 308 307 308 308 308 307 307 307 307 306 305 301 296 293 291 288 287 286 285 285 285 284 283 282 282 280 278 276 276 276 275 274 273 273 273 273 273 272 272 271 271 270 269 269 268 267 267 267 268 268 267 266 265 264 263 262 262 262 262 262 262
311 311 312 312 312 312 313 314 313 311 311 312 311 310 309 309 308 308 308 308 307 306 307 308 308 308 307 308 308 308 308 307 307 306 305 306 303 297 294 292 290 288 287 286 286 285 284 283 282 280 279 277 276 276 275 274 274 273 273 273 272 272 272 271 270 270 269 269 268 267 266 267 267 268 268 267 266 264 263 262 262 262 262 262 262 263
310 310 311 312 312 312 312 312 312 312 312 313 313 313 312 310 309 309 309 309 308 307 307 307 308 308 308 308 308 308 308 307 308 307 306 306 304 298 293 292 290 289 287 286 286 285 284 283 281 279 278 277 276 276 275 273 273 273 273 272 272 272 271 270 270 269 268 268 267 266 266 267 267 267 267 266 265 263 262 262 262 262 262 262 262 263
309 309 309 311 312 311 309 310 313 313 313 312 315 317 315 311 310 310 309 309 309 309 308 307 307 307 307 308 308 308 308 307 307 307 305 303 302 298 294 292 290 288 287 286 285 285 284 282 280 278 276 275 275 274 273 272 272 272 272 272 272 271 270 270 269 268 268 267 266 266 267 267 267 267 267 266 264 263 262 262 262 262 262 262 263 263
310 308 308 310 312 310 309 311 313 313 312 311 313 314 311 308 308 310 310 310 309 309 309 308 307 307 307 308 307 307 308 307 305 303 301 299 298 297 296 293 290 288 287 286 285 285 283 281 279 276 274 274 274 273 272 272 272 272 272 272 271 270 269 269 268 267 267 266 266 266 267 267 266 267 266 265 263 263 262 262 262 262 262 263 263 263
309 309 309 309 312 312 310 311 311 311 312 311 310 310 308 307 309 310 311 311 309 309 308 308 308 308 307 308 307 307 306 304 304 304 302 298 296 295 294 293 291 288 287 286 285 284 282 280 277 276 274 273 272 272 271 271 272 272 271 270 269 269 268 267 267 267 266 265 266 267 267 266 266 266 265 264 263 262 262 262 262 262 262 263 263 263
307 309 310 310 311 311 311 311 311 312 312 311 309 310 310 310 309 309 310 311 310 309 309 308 308 308 308 308 306 305 305 306 306 305 304 299 294 291 292 291 289 288 287 285 283 281 279 277 275 274 273 272 271 271 271 271 272 271 270 269 268 267 267 266 266 266 265 265 266 267 267 267 267 265 264 264 263 262 261 262 262 262 262 263 263 263
307 308 309 310 311 311 312 312 312 312 312 310 310 312 311 310 308 308 310 311 309 309 311 310 308 307 308 308 305 303 305 307 306 305 305 300 292 289 289 289 287 286 285 282 280 277 275 274 273 272 271 270 269 270 270 271 271 270 268 268 267 266 266 265 265 265 265 266 267 267 268 268 267 265 264 263 263 262 261 262 262 262 262 262 262 263
306 306 307 309 310 311 312 312 312 312 312 311 311 310 306 306 307 310 311 312 310 311 311 309 309 308 307 306 304 302 304 307 307 305 300 294 289 287 288 287 285 284 281 278 277 275 273 273 272 270 270 269 268 269 270 270 270 268 267 267 266 265 265 265 265 264 265 267 268 268 269 268 266 265 264 263 262 262 261 262 262 262 262 262 262 262
307 307 306 307 309 311 312 313 312 312 312 312 311 307 302 304 308 311 312 312 313 315 312 308 307 308 306 304 302 302 303 304 303 297 290 288 287 286 285 284 281 280 278 275 274 273 272 271 271 270 269 268 268 269 269 269 268 267 266 265 265 265 265 265 264 264 266 268 268 269 270 268 266 264 264 263 262 261 261 262 262 262 262 262 262 262
308 308 308 308 309 309 311 312 312 312 313 311 307 303 302 306 309 310 312 312 313 314 312 307 306 306 305 302 300 301 302 300 296 292 287 286 286 284 281 280 278 276 275 274 273 272 271 270 269 269 268 267 268 268 268 268 267 266 265 264 264 265 265 264 264 266 267 268 269 270 270 268 265 263 263 263 262 261 261 262 262 262 262 262 262 262
311 311 310 310 310 310 311 312 312 313 314 310 305 302 303 308 311 310 310 312 312 313 312 308 304 304 303 301 299 299 299 296 293 291 287 284 283 281 279 278 276 275 273 272 272 271 270 269 268 267 266 266 266 266 267 268 267 265 264 264 265 265 265 264 265 266 267 268 270 271 270 266 264 263 262 262 262 261 261 262 262 262 262 262 262 263
312 313 312 311 311 312 312 312 312 315 313 308 306 307 305 306 309 310 310 310 310 311 309 307 304 302 300 301 300 296 295 294 291 288 285 283 280 279 277 276 275 274 273 272 271 270 269 268 267 266 265 265 264 265 266 268 267 264 263 265 265 265 265 265 266 267 267 268 270 270 269 265 263 262 262 262 262 261 261 261 261 261 262 262 263 263
314 314 313 313 312 312 313 312 312 314 311 305 306 310 308 305 306 308 309 310 309 308 306 305 305 301 298 299 300 296 294 293 290 286 285 282 279 277 277 276 274 273 272 271 270 269 269 267 266 265 264 263 263 264 265 267 266 264 264 265 266 265 265 265 267 267 268 268 269 268 267 265 263 262 262 262 262 261 261 261 261 261 262 263 264 264
315 314 313 313 312 312 312 312 312 313 310 304 304 309 309 308 307 306 306 307 307 306 304 303 305 302 298 298 299 297 293 291 289 286 284 281 279 277 277 275 273 272 271 270 269 268 267 266 265 264 264 263 263 263 264 265 265 264 264 265 266 265 265 266 267 268 268 268 267 265 263 263 263 263 262 261 261 261 261 261 261 261 262 263 264 265
314 314 313 313 313 313 313 312 311 311 309 306 305 306 307 308 307 305 305 305 304 305 304 302 302 302 299 298 299 297 293 290 288 286 283 281 279 277 276 275 273 272 270 269 268 267 266 265 265 264 263 263 262 262 263 263 263 264 265 265 265 265 265 267 268 268 268 267 265 263 261 260 261 262 262 261 260 260 261 261 261 261 262 264 264 265
314 314 313 312 313 313 313 312 311 311 310 308 306 306 306 306 304 303 303 303 303 304 302 300 300 300 298 296 296 296 293 289 288 286 283 280 279 277 275 274 272 271 270 268 267 266 265 265 265 264 263 263 261 262 262 262 263 264 264 264 264 264 265 267 268 267 267 266 263 261 259 259 260 260 261 261 260 260 260 260 261 262 263 263 264 266
315 314 314 313 313 313 313 312 312 313 312 310 308 307 306 305 304 302 301 301 301 302 300 298 298 297 297 295 294 294 293 290 288 286 283 281 279 277 275 273 272 270 269 267 266 266 266 266 264 264 263 262 261 261 261 262 263 263 264 264 264 264 266 267 267 267 266 264 262 260 258 259 259 259 259 260 261 261 261 261 261 262 263 263 264 266
315 314 314 314 314 314 313 312 312 313 313 312 310 308 307 306 305 304 302 301 300 299 299 298 297 295 295 294 293 294 293 290 287 286 284 281 279 276 275 273 271 270 268 266 266 266 266 265 264 264 263 261 260 260 260 261 262 262 263 264 264 265 266 267 266 266 265 263 260 258 258 258 259 259 258 258 259 260 263 264 264 263 262 263 265 266
315 314 314 314 314 314 313 312 312 313 312 312 311 311 310 308 307 306 304 303 301 299 298 298 298 295 294 293 293 293 293 290 287 285 283 281 278 276 274 272 271 270 268 266 266 266 265 264 264 263 262 261 260 260 260 260 261 262 263 264 265 265 266 267 266 266 264 261 259 257 257 257 258 258 258 258 257 258 259 262 264 265 264 263 263 264
Wind_Speed
3 1 3 6 7 8 8 7 6 5 6 5 4 4 6 6 7 7 5 4 0 2 9 9 9 13 16 19 18 7 9 12 12 11 11 10 10 11 12 13 13 13 10 12 19 24 26 27 27 25 24 23 22 20 17 14 11 9 8 6 4 3 4 5 6 7 9 11 12 14 14 16 16 14 14 15 17 18 19 21 23 24 25 25 26 27
4 2 8 9 9 7 6 6 6 6 5 3 4 4 5 6 8 9 4 4 1 3 7 8 7 13 16 17 20 8 8 12 13 12 15 14 12 11 13 15 14 9 6 9 16 21 25 26 26 26 25 25 24 22 19 15 12 10 9 8 5 4 4 5 7 8 9 10 11 13 14 16 17 15 15 17 17 18 19 21 23 24 24 25 26 26
3 6 11 8 6 5 5 6 7 6 4 2 2 2 4 4 5 8 4 4 2 3 5 8 8 14 16 17 22 15 9 12 11 13 16 14 14 13 14 14 12 10 8 10 13 17 23 26 25 25 25 26 26 24 20 15 12 11 9 8 6 5 5 6 7 8 8 9 10 12 14 16 16 14 14 16 17 17 20 22 23 24 24 25 26 26
2 8 7 4 7 8 6 4 7 5 2 3 3 2 5 4 2 5 5 5 3 3 4 8 10 14 14 14 19 13 7 9 8 12 14 10 12 14 13 12 13 14 14 13 13 14 19 23 24 24 26 27 26 24 20 16 13 11 9 8 6 5 6 6 7 8 8 10 11 13 15 15 15 14 14 16 17 17 20 23 24 25 25 25 25 25
7 6 3 6 6 6 5 3 6 5 3 4 5 6 6 6 6 6 4 5 5 3 3 6 10 10 6 8 11 5 3 6 6 8 11 9 10 9 8 11 13 15 14 15 14 13 15 20 22 24 26 27 26 24 21 17 13 11 9 7 7 6 6 6 7 8 8 10 12 14 16 16 16 17 18 18 19 21 23 26 26 26 26 25 25 24
9 5 6 5 2 4 6 4 5 7 3 4 5 10 10 8 8 6 5 6 5 4 3 4 7 8 2 3 9 4 4 6 3 7 12 9 8 8 10 12 12 12 12 13 14 14 16 19 22 24 25 26 26 24 21 17 13 10 9 7 6 6 6 6 7 7 8 10 12 14 16 16 16 18 19 20 22 24 25 26 27 27 26 26 26 25
4 1 3 5 5 5 5 5 6 7 5 3 4 7 7 4 3 3 4 4 2 4 4 3 1 9 4 2 9 7 7 11 7 8 12 9 7 10 12 12 10 11 12 11 12 14 15 18 20 21 24 27 27 24 20 16 13 10 8 7 7 6 6 6 6 7 8 10 12 13 14 14 14 15 18 19 21 22 24 25 26 27 26 26 26 26
3 3 4 4 5 5 5 5 6 8 7 4 4 5 6 5 4 4 1 2 4 2 4 2 4 8 8 5 8 5 6 13 12 11 14 10 10 12 13 11 11 12 13 12 13 14 14 18 21 22 26 28 26 23 20 17 13 10 9 8 7 6 6 6 6 6 8 10 11 13 14 15 15 16 19 20 21 22 23 25 26 27 27 26 26 26
3 4 4 5 4 3 6 5 7 11 5 5 5 6 6 5 4 4 3 3 2 3 5 5 5 4 9 6 3 4 4 11 12 14 15 11 11 13 12 11 11 12 12 13 14 14 15 20 23 25 28 28 26 23 21 18 13 10 9 9 7 6 6 5 5 6 8 9 11 13 14 16 17 18 20 21 22 23 23 25 27 27 27 28 27 26
1 4 7 7 4 6 5 2 5 8 3 3 6 5 4 5 4 4 2 2 2 3 9 7 8 4 7 4 1 3 3 9 11 12 12 10 10 10 11 11 10 9 10 12 13 14 17 22 25 27 28 27 25 23 21 18 13 10 10 9 7 6 7 5 5 6 8 10 12 13 14 16 17 19 21 22 23 24 24 26 28 27 28 28 28 28
2 1 3 4 4 5 4 3 1 3 2 4 6 4 5 4 4 4 2 2 2 6 11 8 12 8 5 3 4 3 5 8 8 8 8 9 9 9 9 9 10 10 10 11 11 12 16 22 25 26 27 27 25 23 21 18 13 10 10 10 7 7 7 5 5 7 9 11 12 14 15 16 18 20 21 22 24 25 26 27 28 29 29 29 29 29
4 0 2 2 3 5 6 5 3 2 3 4 5 4 4 4 4 4 4 3 0 8 7 3 8 8 7 6 5 6 8 7 8 7 8 10 11 9 7 7 9 10 10 10 11 11 14 17 21 23 25 26 25 24 22 18 13 10 10 10 8 7 6 5 6 7 9 11 13 15 16 17 18 20 21 22 24 25 25 27 28 29 29 30 30 29
3 4 3 1 2 5 6 4 3 4 3 4 4 5 2 4 4 3 4 0 3 8 4 3 4 4 10 10 8 10 11 10 11 10 9 10 10 7 5 6 7 8 10 11 11 12 13 14 17 21 23 25 25 24 22 18 13 10 10 9 8 7 6 6 6 8 10 12 14 15 16 18 18 19 21 22 24 25 25 27 28 29 29 30 30 30
4 4 0 2 3 3 8 6 2 2 1 5 5 5 4 1 1 4 5 3 6 7 3 4 3 4 7 7 12 17 16 14 11 9 8 7 7 6 5 6 7 8 10 11 11 13 14 15 18 21 23 24 24 23 21 17 13 11 10 8 8 7 6 6 7 8 10 12 14 15 16 18 18 19 21 22 24 26 26 27 28 29 30 30 31 31
4 7 3 6 3 5 10 7 5 5 4 4 5 5 5 5 4 4 4 5 7 7 3 3 2 4 3 4 9 13 12 10 4 3 5 5 5 4 3 5 7 8 9 9 10 13 14 16 19 21 22 23 23 22 19 16 12 11 10 8 7 7 6 6 7 8 10 12 13 15 16 17 18 20 22 23 25 26 27 28 28 29 30 30 32 33
4 9 6 2 0 6 8 3 4 7 3 2 3 5 3 5 5 3 4 5 2 5 5 4 4 5 3 7 7 2 5 7 3 4 3 4 3 2 3 6 7 8 8 9 11 13 13 15 18 19 20 21 21 20 18 15 12 11 10 7 6 6 6 6 8 9 10 11 13 15 16 18 19 21 23 25 26 26 27 27 28 30 30 31 32 33
3 6 3 1 1 3 4 3 2 3 4 2 3 4 4 3 5 2 4 1 4 4 6 3 6 6 2 6 5 2 6 7 3 3 2 3 2 3 6 7 7 8 9 10 11 12 11 12 15 17 19 21 21 20 18 15 12 11 9 7 6 6 6 6 8 9 10 11 13 15 16 18 20 22 24 25 26 26 27 27 27 29 29 30 31 32
4 4 3 3 2 3 1 3 1 1 4 5 3 5 3 2 3 3 1 3 3 4 6 3 8 7 1 4 2 1 7 9 7 5 3 3 4 6 8 8 8 9 9 10 10 9 9 11 13 16 19 21 22 21 18 14 12 11 8 7 6 5 5 6 7 8 10 12 14 16 18 19 21 22 23 24 25 26 26 27 27 27 29 30 31 32
3 3 4 2 3 2 2 2 1 1 3 5 4 3 3 3 2 2 2 3 2 4 7 8 10 8 5 4 2 4 9 9 8 5 4 7 8 8 9 9 8 8 8 9 10 10 9 11 15 18 20 21 22 20 17 14 13 11 8 6 6 5 5 5 7 9 11 13 15 17 18 20 21 22 23 24 25 25 26 27 27 27 29 29 30 31
3 3 4 0 1 2 1 2 5 3 2 3 1 2 1 3 4 3 3 3 3 4 7 9 12 9 6 6 6 9 11 10 7 6 8 11 11 10 10 9 9 10 10 11 11 11 10 12 16 21 22 23 22 20 17 16 14 11 8 7 6 5 5 6 8 10 13 14 15 17 19 21 22 22 23 24 25 26 26 27 28 28 28 29 30 31
3 3 5 1 2 1 4 5 9 10 7 4 3 2 2 1 2 1 1 2 4 4 4 5 10 12 5 6 7 9 10 11 10 8 9 11 11 12 11 10 10 11 12 12 11 12 11 12 16 22 23 23 21 19 18 17 14 11 9 8 6 5 5 7 9 11 13 14 16 19 20 21 22 23 24 25 25 26 27 27 28 28 28 29 31 31
4 4 5 3 2 5 6 3 3 8 8 8 8 8 8 6 4 1 5 3 4 4 5 3 9 15 5 6 6 7 9 10 11 10 9 9 12 12 11 12 12 11 12 12 12 12 11 11 16 20 21 20 20 19 19 17 14 11 9 7 5 5 6 8 10 11 13 15 17 20 21 22 24 24 25 26 27 27 28 28 29 29 31 32 33 32
3 3 5 7 5 6 5 2 1 3 1 3 5 5 7 7 7 7 8 6 3 3 3 4 5 14 6 7 7 7 8 10 10 10 9 9 11 11 11 11 10 10 11 10 10 11 10 11 15 18 18 19 20 21 20 17 13 11 8 6 5 5 6 8 10 12 14 16 18 20 22 23 24 25 26 27 28 30 31 31 32 32 33 35 34 31
2 3 4 7 4 3 4 3 2 2 2 3 6 5 7 9 10 9 6 3 3 4 4 4 6 14 6 4 5 3 3 5 6 8 9 8 8 9 10 10 9 10 9 9 10 9 8 10 13 14 15 17 19 20 19 16 12 10 8 6 4 5 6 8 10 12 14 17 19 21 23 24 25 26 27 28 30 31 32 33 34 34 35 35 32 28
4 3 4 5 5 5 4 3 2 1 2 4 6 5 8 13 11 4 0 2 3 7 8 5 12 16 6 2 1 1 2 5 7 7 7 7 7 7 8 8 9 9 9 10 11 10 10 11 11 11 13 16 17 18 18 15 12 9 7 6 5 5 6 8 10 13 15 18 21 22 23 25 26 27 28 29 30 32 32 32 33 34 33 31 27 25
5 5 6 7 10 10 9 7 4 4 3 2 4 5 10 16 15 8 3 5 8 8 9 9 18 16 10 5 1 2 5 7 10 8 6 7 7 7 7 8 9 10 11 13 13 12 12 11 9 9 12 15 16 17 16 14 11 10 7 5 4 4 6 8 10 13 16 19 21 23 24 25 25 26 28 29 30 31 31 31 32 31 28 25 24 25
3 4 9 14 16 14 14 12 5 6 5 6 10 12 14 16 16 12 8 7 11 9 8 18 21 15 21 20 6 4 9 10 12 11 8 8 8 7 8 9 10 10 11 13 12 12 12 11 9 9 11 14 15 16 15 14 12 10 7 5 4 4 6 9 11 14 17 19 21 22 23 24 25 26 27 28 29 30 30 31 29 27 24 23 24 27
3 6 14 18 19 17 17 14 6 9 8 12 14 17 18 16 15 14 14 14 14 10 12 22 19 14 26 27 12 11 15 13 16 16 10 10 10 9 9 9 10 10 10 11 12 13 14 12 10 9 10 13 15 16 15 13 11 9 6 4 3 4 6 9 12 15 17 19 20 21 22 23 24 25 26 26 27 29 30 31 29 27 25 24 26 27
3 10 15 16 17 17 17 15 8 9 9 10 12 18 19 18 18 18 20 23 20 14 17 22 20 21 29 23 13 16 17 15 19 18 9 9 9 8 9 9 11 12 12 13 15 15 15 13 10 9 10 14 16 16 15 13 11 9 6 3 1 4 7 10 13 15 17 18 19 20 21 22 24 24 25 26 26 28 30 30 30 29 27 25 25 26
4 8 13 13 13 16 19 18 10 8 10 10 11 19 19 16 18 21 24 27 24 19 22 25 25 29 28 18 14 19 18 14 16 13 6 8 9 9 11 12 13 13 14 16 16 16 14 12 11 10 10 13 16 16 16 14 12 8 5 2 2 5 7 10 12 14 16 17 18 19 20 21 22 23 25 26 27 29 30 30 31 31 29 28 28 28
4 7 10 8 9 15 19 17 11 11 13 12 16 25 21 12 13 22 25 22 17 17 24 27 26 27 24 17 16 18 16 13 15 15 12 10 9 11 12 12 13 13 15 15 15 15 13 11 11 11 11 14 17 18 17 15 12 7 4 1 2 5 7 10 12 13 14 15 16 18 19 20 21 23 25 27 29 30 31 31 31 31 31 31 31 31
5 5 6 4 7 15 15 11 10 10 7 10 21 31 24 14 16 23 20 14 14 19 23 23 20 20 20 17 16 16 15 16 19 20 18 14 11 12 13 13 14 14 15 15 15 15 14 14 14 13 13 15 18 19 18 16 12 7 4 2 2 5 7 9 11 12 13 14 15 16 17 18 21 24 27 28 30 31 31 31 31 31 31 32 32 32
5 5 5 6 10 14 9 3 5 4 2 11 20 23 22 20 23 23 16 16 21 21 17 17 18 20 18 15 16 18 18 19 20 18 16 15 11 11 13 14 14 15 16 16 16 17 17 15 13 14 15 18 20 21 19 16 12 8 5 2 2 4 6 8 9 10 11 12 13 14 16 18 22 25 27 29 30 30 30 31 31 30 31 32 32 32
4 7 7 6 8 11 5 4 5 4 11 14 8 9 16 22 24 21 20 25 27 20 16 20 21 20 16 15 19 21 21 20 18 14 11 10 9 10 13 13 13 14 15 15 15 16 15 13 12 15 19 21 22 21 18 14 11 8 5 3 3 4 5 6 7 8 10 11 12 13 16 19 22 24 27 28 29 30 30 30 30 30 30 31 31 31
7 8 7 5 5 5 2 5 3 12 15 9 3 4 12 16 17 19 23 29 30 24 23 24 23 21 20 22 22 21 21 19 15 10 7 9 10 10 12 13 14 14 13 13 15 15 15 13 13 16 21 24 23 21 18 15 11 8 6 4 4 4 3 4 5 7 9 10 11 14 17 20 22 24 26 28 29 29 30 29 29 30 29 29 29 29
10 8 6 5 4 1 2 6 12 13 9 11 13 10 7 4 5 10 18 24 26 25 21 19 22 24 24 24 23 19 14 11 11 9 8 10 11 12 12 13 14 15 15 16 17 17 18 18 18 21 25 27 25 21 18 15 12 9 7 6 4 3 2 2 3 6 8 10 11 15 18 19 21 23 26 27 28 29 29 29 29 29 29 28 27 27
12 9 6 7 7 6 7 10 11 11 12 16 23 16 6 4 6 7 12 20 25 24 16 14 20 25 23 22 21 13 3 5 11 13 9 11 13 13 13 12 12 14 14 14 16 18 20 22 25 29 31 28 25 22 19 15 12 10 8 7 4 3 2 0 3 5 8 10 12 15 17 18 20 22 24 26 27 28 28 29 29 28 27 28 28 28
15 12 10 10 9 8 10 11 10 11 12 19 26 17 5 9 12 9 7 19 27 21 13 16 22 25 21 19 14 3 5 3 11 14 8 9 12 11 9 7 7 9 11 12 14 17 22 27 30 32 32 28 24 21 18 15 13 11 10 8 5 4 3 1 2 5 8 10 13 15 16 17 19 20 22 24 26 27 28 28 28 27 27 27 28 29
15 11 11 11 9 9 11 11 11 12 13 17 21 13 4 8 8 7 5 18 19 8 15 18 22 20 18 15 8 6 5 2 11 11 5 7 9 8 7 6 7 9 11 16 21 24 29 34 34 32 30 28 23 20 18 15 14 13 11 8 7 5 3 1 3 6 9 11 13 14 15 16 17 18 20 22 24 25 27 27 28 27 27 27 27 28
10 8 9 11 12 13 13 12 10 9 9 14 15 6 5 7 11 9 9 18 8 10 15 18 18 17 16 11 7 8 8 9 9 7 3 7 6 6 7 8 10 11 11 15 25 33 35 36 34 28 25 26 23 20 18 16 15 13 11 9 7 5 3 3 4 7 9 11 12 13 14 15 16 17 18 21 23 24 25 26 27 28 28 28 27 27
6 8 9 11 14 15 14 15 11 6 8 15 10 7 8 7 9 9 16 11 3 8 11 14 15 15 12 9 9 9 11 9 4 2 5 8 8 7 7 8 10 14 16 18 27 35 35 32 30 26 24 25 24 21 19 18 16 14 12 9 7 4 4 3 5 7 9 11 12 13 13 14 15 16 17 19 22 24 24 25 26 28 28 29 28 28
5 5 7 10 13 12 12 14 10 7 12 14 7 9 9 7 6 15 14 3 1 6 7 10 13 12 10 12 12 11 8 5 5 6 7 8 10 9 8 9 9 12 17 21 27 34 33 27 24 24 22 22 23 21 19 18 17 14 11 9 6 5 4 4 6 8 10 10 12 13 13 14 15 16 17 19 21 23 24 25 25 26 28 28 27 27
9 6 6 9 10 8 9 10 7 9 13 11 11 6 6 11 16 19 11 4 5 8 8 8 11 10 10 12 13 9 5 5 6 7 7 9 10 9 8 9 9 9 14 16 20 28 32 25 19 20 21 21 21 19 18 18 17 14 11 8 7 4 4 6 7 9 10 11 11 12 12 14 15 16 17 19 20 22 24 24 24 26 27 26 26 26
9 7 6 7 8 7 7 10 11 12 10 16 17 11 14 19 22 19 12 10 11 8 7 8 10 10 11 12 11 9 7 6 7 9 9 10 10 9 7 9 10 9 11 13 17 27 31 24 17 17 19 20 19 18 16 16 16 14 11 8 7 4 4 7 8 9 10 11 11 11 12 14 16 16 17 18 20 22 23 24 24 25 25 24 24 24
13 16 15 11 10 11 12 12 13 11 8 14 17 18 21 26 27 22 14 11 12 8 7 8 9 10 11 11 9 9 9 8 9 10 11 11 11 10 9 9 9 8 10 15 20 28 30 26 22 21 19 18 18 17 15 14 14 14 11 9 7 5 5 7 9 9 10 11 11 10 12 14 16 17 17 18 20 21 22 24 24 24 24 22 22 23
18 21 17 11 10 12 12 11 11 10 9 15 19 21 21 23 23 20 15 14 13 9 7 8 9 10 11 10 9 9 10 10 11 10 10 12 12 9 8 8 9 10 12 15 19 25 29 28 25 22 19 16 16 15 15 13 12 13 12 9 7 6 6 7 9 9 9 10 10 10 12 14 16 18 18 18 20 20 21 23 23 23 22 20 20 25
14 16 14 11 11 11 11 14 19 20 17 17 19 22 23 22 18 15 15 17 16 11 9 10 11 10 11 12 12 12 12 12 13 11 10 12 14 12 9 9 9 10 11 14 21 28 31 26 20 17 17 16 15 15 15 14 12 12 12 9 7 7 7 8 8 8 9 10 10 10 12 14 16 18 19 20 20 20 20 21 21 21 21 20 22 27
11 13 13 12 13 14 16 19 22 22 19 18 18 18 19 20 18 14 13 14 14 12 10 10 9 9 10 12 14 14 12 13 14 14 12 12 14 14 10 8 10 11 12 17 26 32 29 20 15 15 16 16 16 16 16 15 13 13 11 9 7 7 8 8 8 8 9 9 9 10 12 13 14 16 19 21 22 21 19 19 20 20 20 21 24 28
8 10 11 11 14 17 17 17 17 16 14 16 20 21 20 20 20 18 14 12 11 11 10 9 9 10 12 13 14 12 12 13 13 15 15 13 13 13 9 8 10 11 13 19 27 32 29 23 20 20 18 16 18 19 17 15 14 13 11 9 7 7 7 8 9 9 9 9 9 10 11 13 13 14 16 20 23 23 19 16 16 18 20 22 23 25
7 10 11 10 13 15 15 18 20 17 13 15 22 27 27 24 21 18 16 14 14 14 13 12 11 10 11 12 12 13 13 13 13 15 15 14 15 15 12 10 10 8 12 21 26 27 28 28 27 26 22 20 21 21 18 17 15 13 11 9 7 6 7 8 8 9 9 8 9 10 12 13 12 13 14 15 19 22 22 19 16 16 18 22 23 23
13 16 15 14 16 18 21 24 22 18 16 18 23 27 24 19 18 18 18 19 20 18 16 15 15 13 11 10 12 14 15 14 15 16 14 13 16 16 12 12 11 10 15 24 26 23 23 26 28 28 24 22 23 22 20 18 16 13 12 10 8 7 6 7 8 9 8 8 8 9 10 11 12 12 13 13 14 16 20 22 22 22 21 21 24 25
Wind_Direction
71 19 252 222 229 236 222 193 183 172 154 150 150 185 231 242 267 267 247 275 208 213 266 250 238 257 263 271 273 235 186 222 230 232 235 223 217 215 215 220 215 216 214 198 197 195 189 184 182 181 181 183 185 187 190 193 199 204 208 222 237 268 303 315 323 332 337 342 343 343 340 336 338 339 337 338 340 344 346 347 348 346 343 341 340 340
61 232 239 220 217 218 199 167 135 126 132 126 171 217 263 239 257 274 267 307 310 175 265 274 260 260 257 266 273 248 185 227 224 221 235 224 219 221 216 221 217 210 195 191 204 200 194 191 186 185 184 186 187 188 193 196 201 205 215 227 234 260 291 311 319 327 334 339 340 335 333 331 332 336 336 337 340 344 346 346 345 344 342 338 337 337
14 251 244 217 178 118 95 131 127 122 139 143 165 201 271 255 276 292 307 355 348 175 267 293 283 268 261 261 267 256 218 238 225 216 233 224 217 222 218 220 212 201 194 196 206 201 198 195 190 189 188 190 193 193 195 198 202 207 218 229 234 256 287 306 312 320 326 330 331 327 327 327 328 331 331 333 339 341 341 343 342 341 339 335 334 334
251 258 252 180 140 114 89 113 119 106 140 170 162 194 257 273 309 286 309 347 302 233 273 290 281 268 262 255 264 268 243 251 240 226 238 226 221 226 219 216 208 203 200 198 202 198 197 197 194 194 191 192 195 195 197 200 205 211 217 228 236 255 283 297 305 314 317 321 323 322 325 328 330 332 330 332 337 336 336 339 339 338 335 332 330 330
240 243 131 106 123 136 133 133 141 157 246 245 205 210 243 260 244 243 296 331 312 312 321 304 292 274 252 244 261 294 329 277 254 243 252 233 229 237 225 220 212 206 201 197 198 193 194 197 197 196 193 192 193 195 200 204 209 215 217 226 236 252 278 292 301 308 312 316 317 320 328 335 338 337 335 334 334 334 336 337 335 333 331 328 326 325
262 236 137 125 117 137 159 191 191 179 212 289 235 214 227 240 248 271 333 347 342 326 327 2 322 287 284 264 262 279 326 288 237 239 256 240 221 228 229 225 213 206 204 198 196 192 193 195 195 196 193 191 193 197 201 205 211 216 217 223 234 252 277 289 298 306 310 313 315 324 331 337 339 335 334 333 330 331 333 332 330 328 328 326 323 323
269 351 100 148 153 146 178 231 229 172 147 282 245 198 201 200 228 274 334 343 291 261 297 46 307 274 287 271 267 281 299 282 257 246 258 248 219 219 227 225 208 202 201 197 195 193 193 191 191 194 192 189 192 196 200 203 210 216 218 222 232 258 282 290 297 302 307 313 318 325 329 331 331 324 323 325 323 324 326 325 324 323 324 324 322 321
166 83 57 108 120 141 194 241 224 158 132 237 224 138 133 135 176 200 152 277 246 267 302 197 185 275 281 247 267 299 292 279 275 267 264 250 227 227 229 221 207 203 197 194 195 192 192 192 191 190 189 190 192 194 198 201 208 215 220 223 234 268 291 292 296 302 308 315 320 324 326 328 328 322 320 321 320 321 323 321 320 319 319 320 319 317
131 156 183 146 116 186 212 229 194 160 153 242 194 131 123 131 159 163 153 236 278 2 290 218 160 276 274 250 315 5 267 270 273 265 263 254 234 231 231 221 210 205 197 196 195 192 192 193 192 189 186 189 190 193 198 200 205 213 220 228 239 279 301 296 297 306 311 317 321 324 326 326 327 325 322 320 320 322 322 319 317 316 315 316 315 312
119 193 192 152 160 218 215 244 188 166 190 213 140 107 74 75 80 94 135 225 23 328 266 227 169 228 272 236 101 57 234 251 259 259 261 259 246 232 229 221 208 201 198 199 197 192 193 192 191 188 187 188 189 193 197 198 204 212 220 232 248 292 310 306 305 311 316 321 322 325 327 325 327 327 323 321 321 323 322 318 316 314 313 311 309 308
311 259 178 156 187 190 142 98 124 136 144 130 105 58 29 37 47 56 64 65 33 275 266 229 180 193 277 257 182 186 213 215 222 250 266 269 263 240 226 215 199 198 198 196 195 190 190 192 192 189 188 188 189 192 196 198 204 212 221 234 257 303 318 314 317 319 320 323 324 327 328 327 328 326 322 320 322 323 320 316 314 312 310 307 305 304
337 319 202 213 166 131 100 80 62 55 85 104 84 55 13 335 8 23 358 41 82 258 268 225 173 187 244 252 221 233 247 223 205 224 244 253 260 248 225 209 199 199 197 190 190 187 185 191 195 193 190 188 188 191 195 198 204 213 223 235 264 308 323 322 324 325 324 325 327 329 330 329 328 324 320 320 319 318 316 313 311 309 306 304 303 302
303 223 222 235 167 139 113 84 27 360 45 96 91 82 47 324 358 346 310 52 223 253 259 144 150 219 246 243 236 242 251 240 221 220 227 245 266 263 223 209 205 198 195 191 189 188 187 192 196 194 191 188 187 191 195 197 205 215 221 236 272 309 325 328 331 329 327 328 330 331 330 330 326 321 319 319 317 315 313 310 307 305 303 302 301 300
295 298 329 170 255 172 152 160 207 267 150 148 145 131 146 137 42 272 274 278 266 270 253 158 161 266 273 256 229 225 230 231 226 230 241 262 284 273 231 211 208 204 200 195 193 193 194 196 194 191 190 187 187 190 193 197 206 216 219 237 277 306 322 329 331 330 330 331 332 330 329 328 323 320 320 319 318 315 312 308 304 302 300 299 298 298
250 292 221 182 228 179 180 195 168 140 147 175 157 139 155 155 170 223 231 244 274 291 261 188 199 230 247 282 232 215 229 242 252 281 276 292 291 266 235 213 211 212 204 200 201 202 202 198 194 191 188 185 185 187 191 197 208 214 219 239 279 305 321 331 333 334 334 334 332 330 329 327 323 321 321 320 318 314 310 307 303 301 300 298 298 298
223 268 246 197 184 167 184 204 112 111 138 217 126 121 178 176 169 214 220 203 258 313 273 201 222 223 213 281 272 244 275 272 310 336 334 326 297 215 210 215 214 212 205 203 205 207 207 199 194 190 185 182 183 186 192 199 207 211 219 245 278 303 321 334 338 340 339 336 335 334 331 328 325 325 324 321 318 314 310 307 304 302 301 299 299 298
215 274 275 60 347 185 183 187 132 138 180 177 135 173 214 163 137 173 269 330 63 293 268 213 247 273 318 278 273 3 287 262 265 295 314 321 274 209 221 218 212 211 205 205 207 206 203 196 194 189 181 180 182 188 194 199 206 208 218 250 274 297 317 333 341 342 342 340 340 338 334 330 329 327 325 320 317 314 311 308 305 303 302 301 300 299
204 263 255 155 203 245 185 159 83 46 133 135 181 209 184 108 101 114 250 329 28 257 271 264 256 268 282 268 298 356 266 254 244 241 260 286 241 222 232 221 212 212 204 206 208 203 197 191 192 187 182 183 186 191 196 196 200 204 218 250 267 288 311 334 344 344 345 345 343 339 336 334 332 328 324 319 316 314 312 309 307 305 303 302 301 299
175 244 268 164 195 263 38 118 183 352 102 137 202 223 117 142 194 118 158 247 246 246 274 282 277 267 206 208 214 203 230 242 237 221 228 245 226 223 232 220 212 209 201 205 203 197 194 189 188 185 182 185 188 192 194 192 196 201 216 241 255 279 307 334 343 348 351 349 344 340 338 336 332 327 323 319 317 315 312 310 309 307 304 303 301 299
132 215 260 288 248 272 36 170 194 192 72 87 218 314 39 159 180 162 160 184 183 228 271 288 295 281 208 182 182 196 210 215 209 204 221 229 221 219 222 211 207 204 201 205 200 196 194 187 186 184 182 185 189 191 191 190 193 200 214 230 245 272 305 332 343 350 351 346 342 340 338 334 329 325 322 320 318 315 312 311 311 309 306 303 300 297
108 216 236 271 336 231 197 210 196 180 162 149 181 226 234 171 121 207 233 145 146 205 251 278 285 274 222 161 176 191 199 200 195 201 219 224 220 218 213 204 203 204 205 204 198 194 189 184 185 184 184 187 188 188 188 189 193 200 214 225 243 275 311 334 345 347 343 342 341 338 335 331 328 326 323 322 319 315 313 313 311 309 305 301 298 296
168 202 211 206 233 217 222 242 192 185 172 171 191 198 195 176 126 185 251 222 160 205 212 187 268 272 243 147 175 182 183 197 200 203 213 218 218 215 211 207 201 201 207 203 195 191 186 184 184 182 183 183 182 183 184 188 194 202 213 225 250 287 320 335 339 340 339 341 341 336 333 329 328 328 325 322 320 317 317 316 313 311 307 303 301 299
136 138 214 228 228 228 250 308 164 203 186 200 217 195 181 175 162 189 230 225 174 219 208 119 266 272 245 155 186 188 185 204 203 197 206 216 218 215 210 207 202 203 207 200 193 192 188 184 180 178 181 180 180 182 184 189 197 203 214 231 260 296 321 330 333 337 340 340 338 334 332 330 330 329 325 323 322 321 321 319 316 314 311 307 305 301
107 124 221 248 278 322 326 353 80 79 60 251 241 190 174 199 201 202 214 186 164 218 191 118 254 261 250 167 200 196 187 231 221 200 208 217 219 219 210 202 200 201 199 194 194 193 186 181 177 177 181 180 179 181 184 190 197 203 216 237 265 293 313 326 334 340 341 338 336 334 333 332 331 329 326 324 322 321 321 319 317 316 314 311 304 297
195 175 188 241 280 306 313 334 348 298 188 223 237 193 193 217 219 221 79 131 225 210 160 161 249 253 252 127 138 315 278 263 254 224 216 225 221 215 210 200 197 194 188 191 193 188 186 186 182 181 180 177 177 180 183 189 197 204 218 238 266 290 313 333 340 341 340 338 337 336 335 333 330 327 325 324 323 322 320 317 316 315 312 309 301 296
190 190 179 211 233 239 242 241 227 210 193 220 246 207 207 216 212 213 219 203 227 206 152 202 244 257 271 249 154 314 271 257 258 244 230 241 232 214 207 200 194 191 191 194 191 188 190 188 183 180 176 176 177 178 182 189 196 207 218 234 267 299 328 343 345 342 342 342 340 337 333 331 328 325 324 324 323 321 318 315 314 313 308 303 300 301
175 206 204 218 226 227 237 240 186 129 152 207 223 217 217 217 210 216 229 216 226 226 208 232 243 265 274 262 249 278 260 251 258 255 240 238 232 216 210 204 198 196 194 194 189 186 189 186 183 178 172 174 175 177 184 191 197 207 218 233 267 316 345 349 345 344 346 345 340 336 331 327 326 325 324 323 319 317 316 316 315 311 306 304 304 304
174 229 223 227 233 234 245 248 188 147 189 208 214 222 224 219 208 213 228 227 224 228 240 245 247 257 262 260 261 266 261 259 267 265 249 234 225 211 209 204 199 199 195 193 191 190 191 188 179 171 168 170 173 177 184 191 198 207 218 237 282 346 355 348 346 348 349 345 339 333 328 325 326 325 323 319 317 317 320 320 317 313 310 308 307 305
189 240 233 231 241 244 251 253 206 174 215 213 208 224 225 216 209 212 227 231 224 224 241 249 249 248 254 259 263 262 260 260 268 272 256 230 222 204 201 201 197 197 195 195 196 194 193 186 172 167 169 170 172 176 181 188 197 206 216 233 320 4 357 350 350 352 350 344 337 331 328 328 327 324 321 320 321 322 323 323 321 318 315 312 309 306
187 245 244 240 252 252 252 252 222 197 235 237 230 236 228 214 212 217 227 232 228 231 244 251 253 253 256 260 259 261 264 262 271 280 252 216 215 200 200 205 201 199 198 199 199 196 191 181 169 166 167 171 174 176 179 186 195 203 210 219 8 6 358 353 354 354 348 341 335 332 332 330 325 323 325 327 328 328 327 326 324 321 318 315 312 309
206 239 247 246 259 254 251 252 234 218 233 241 249 250 238 207 213 229 233 234 234 239 245 250 255 259 261 261 258 263 271 273 273 271 255 236 217 203 207 209 203 202 202 200 198 193 184 172 168 170 172 176 176 175 178 185 192 197 197 151 19 4 1 358 356 353 344 336 335 335 332 327 324 328 333 335 334 332 329 327 325 323 321 319 316 314
196 223 244 237 249 252 252 249 231 221 234 246 251 251 242 213 221 236 237 230 226 234 244 250 253 257 261 265 265 264 265 265 264 263 260 253 228 208 212 212 204 203 203 199 195 189 181 176 176 176 174 172 172 174 179 183 184 185 175 128 27 8 7 4 358 349 338 335 337 334 327 325 331 338 340 338 336 333 330 328 327 326 324 321 319 317
188 208 224 217 239 253 253 216 178 158 237 255 248 244 238 229 233 242 248 241 231 228 237 245 245 250 259 268 270 267 262 257 256 255 256 255 239 215 214 213 206 204 201 196 192 186 182 181 179 172 169 168 170 175 179 180 178 171 156 126 44 23 16 9 357 341 334 337 333 326 327 334 342 344 341 339 337 334 332 331 328 327 325 322 320 317
204 220 222 212 237 251 237 104 102 183 236 249 241 208 218 229 234 237 244 246 241 231 229 240 249 257 262 260 259 260 260 258 258 256 248 241 228 215 216 214 208 206 201 194 190 185 181 177 169 165 165 167 169 171 174 175 170 158 145 125 70 44 26 8 351 336 332 332 327 327 337 345 347 345 341 340 338 335 334 331 328 327 326 323 321 318
203 216 222 218 239 250 144 104 186 229 235 257 305 197 210 224 226 227 238 246 247 242 236 240 250 254 252 252 253 255 260 265 272 272 241 220 215 211 212 212 207 202 195 187 183 180 175 170 163 160 160 161 163 164 167 169 162 151 145 125 93 67 37 3 342 334 328 324 328 339 347 350 348 345 342 341 339 335 333 331 328 327 326 324 320 317
214 213 213 214 219 213 150 195 230 249 276 305 291 253 215 209 205 221 244 251 250 245 236 236 246 247 246 250 253 255 264 284 296 279 229 210 214 207 204 209 205 197 192 187 182 179 176 171 163 157 155 156 159 162 164 164 157 147 140 128 111 92 66 9 329 325 325 327 337 347 351 351 348 345 344 341 338 334 331 329 328 327 326 323 319 316
218 213 213 222 217 218 232 228 241 277 298 282 267 251 199 156 178 203 247 261 258 249 227 218 240 246 245 248 252 258 305 350 305 278 232 206 212 210 209 209 197 191 189 180 172 168 165 160 155 152 152 154 158 162 161 158 153 143 137 136 132 124 122 251 306 319 328 336 344 349 352 352 348 345 344 340 335 331 329 328 327 327 326 322 319 317
215 212 212 226 223 222 242 246 247 259 255 251 257 258 193 180 201 191 224 262 266 252 204 201 232 241 243 246 245 230 70 24 280 272 242 206 208 205 204 197 174 173 168 153 147 145 145 148 148 149 152 152 155 160 158 152 148 144 143 147 148 151 167 205 315 332 337 341 346 351 356 355 350 346 343 338 332 328 327 327 326 326 325 321 317 316
217 218 217 230 234 227 237 243 240 241 243 251 261 264 186 178 176 132 206 258 262 213 166 198 226 232 238 240 212 140 113 214 257 262 226 188 194 185 173 154 136 140 143 144 146 143 142 145 144 145 149 150 151 157 156 149 147 148 149 153 158 165 168 94 353 341 341 345 351 357 1 356 351 347 341 334 330 327 326 326 325 324 323 320 317 314
209 220 221 225 232 231 232 240 243 241 252 261 261 244 165 150 121 121 238 256 237 149 168 201 217 221 226 219 166 153 184 214 242 257 168 150 158 149 146 146 142 140 132 134 141 142 141 142 142 143 148 150 153 155 152 149 148 150 152 158 163 159 121 43 358 345 348 354 359 4 4 357 350 346 340 333 331 329 327 326 326 325 324 321 318 316
197 214 214 217 227 229 228 239 247 242 248 254 241 165 142 125 123 193 239 249 175 166 186 193 204 215 209 178 163 192 210 207 202 139 120 126 123 120 124 124 127 131 129 131 139 140 140 141 143 145 148 152 154 151 150 152 151 150 156 161 154 125 76 27 358 360 5 7 10 9 3 355 349 345 341 336 333 329 327 329 329 327 325 322 320 318
192 203 205 212 224 226 227 240 250 251 244 237 192 138 146 152 203 230 236 250 184 211 198 192 205 208 189 178 192 208 205 169 134 132 136 135 130 127 125 117 111 118 126 133 140 141 139 137 138 140 144 151 152 150 152 154 149 150 158 151 125 97 61 23 15 21 20 17 15 9 359 353 349 346 343 340 337 331 329 332 332 328 326 324 321 320
188 192 203 204 210 218 228 234 239 250 235 190 137 126 189 205 230 240 241 272 253 208 189 207 212 196 184 194 207 209 175 135 143 150 145 141 137 130 126 127 125 126 129 134 143 145 140 135 133 137 142 149 151 151 154 153 147 150 150 128 107 93 52 35 34 34 29 23 17 8 359 353 351 350 346 343 341 335 331 333 333 330 328 326 324 324
179 186 215 208 195 199 215 215 219 236 217 161 154 187 209 211 231 242 233 239 243 208 180 210 215 198 194 197 203 202 176 158 169 162 148 149 145 133 130 133 130 131 134 138 146 148 142 135 131 133 139 147 152 152 153 151 148 145 136 116 107 94 53 47 48 43 36 30 21 10 1 355 352 351 349 347 345 340 336 336 334 332 331 329 328 328
191 201 217 217 200 202 214 217 219 225 198 171 188 212 213 214 229 236 227 233 245 223 182 202 212 202 199 197 191 189 185 181 181 169 157 158 154 142 138 138 132 132 134 137 146 149 145 138 135 133 134 143 151 148 145 148 147 138 127 118 113 95 67 62 56 48 41 34 26 15 3 356 353 353 352 352 350 344 340 338 336 333 331 330 332 333
208 211 219 223 214 218 232 242 237 225 194 189 208 223 222 220 227 231 229 235 241 224 188 201 209 194 190 192 184 189 197 187 176 172 163 156 154 146 134 131 134 134 132 136 147 150 144 139 135 131 129 138 146 142 138 144 145 134 127 126 119 97 80 74 63 52 46 38 30 21 5 355 353 354 355 356 354 350 344 341 336 332 330 332 334 332
221 218 222 223 215 217 231 235 232 228 214 202 213 226 231 231 227 219 220 228 232 220 197 205 208 187 181 188 189 194 199 183 169 170 162 154 157 157 144 137 144 147 146 147 151 149 144 139 135 131 129 135 144 145 143 145 142 133 130 128 117 100 89 82 69 58 52 42 32 22 6 353 350 352 353 354 353 350 348 348 342 333 329 333 333 329
212 212 216 218 217 222 230 230 231 233 226 216 223 231 234 236 231 220 219 226 226 216 203 201 197 180 180 193 197 195 191 180 172 168 162 161 164 162 155 148 148 147 148 149 150 151 148 139 134 134 131 134 145 151 149 146 140 134 132 126 114 103 93 85 75 65 57 45 31 19 3 352 351 352 352 352 351 347 345 347 345 338 334 336 333 330
185 197 199 205 219 231 239 241 246 250 241 231 234 237 235 235 231 223 221 224 221 214 206 197 192 189 189 194 196 190 183 183 179 169 164 166 166 162 156 149 147 146 148 152 155 155 151 143 139 136 131 136 150 155 151 145 140 136 134 128 116 106 96 87 80 73 63 47 29 14 358 352 356 357 354 354 353 353 354 352 344 338 339 342 340 335
181 205 201 205 223 231 232 232 234 237 236 231 233 233 232 231 229 223 219 219 219 214 204 198 200 203 201 196 190 184 182 185 181 171 167 168 169 166 155 143 142 140 143 150 154 152 147 144 143 139 136 143 154 155 150 145 142 141 140 133 121 112 101 92 85 77 67 49 27 8 353 350 356 360 358 355 353 355 0 6 7 1 350 345 344 343
204 212 206 212 227 228 226 225 226 229 233 233 236 238 234 225 222 223 219 219 221 215 204 200 202 202 204 201 191 186 186 182 174 170 169 170 169 163 152 148 151 150 150 153 152 147 143 142 142 141 142 149 155 154 149 146 145 145 144 138 128 120 107 95 89 80 67 47 25 3 347 347 355 358 358 356 354 351 353 358 9 19 14 359 349 347